Location: Poprad
(49.0500°N, 20.3000°E)
Time: 09:03:51
(UTC+02:00)

ISS - Visible Passes

Search period start: 20 October 2020 00:00
Search period end: 29 October 2020 23:00
Orbit: 418 x 419 km, 51.6° (Epoch: 20 October)

Date Brightness Start Highest point End Pass type
(mag) Time Alt. Az. Time Alt. Az. Time Alt. Az.
22 Oct -0.8 06:06:16 10° SSE 06:08:01 14° SE 06:09:46 10° ESE visible
24 Oct -1.9 06:05:59 10° SSW 06:08:58 29° SE 06:11:57 10° E visible
25 Oct -1.4 04:19:31 13° S 04:21:23 20° SE 04:23:55 10° E visible
26 Oct -0.8 03:34:13 13° SE 03:34:13 13° SE 03:35:33 10° ESE visible
26 Oct -3.4 05:07:11 13° SW 05:10:05 62° SSE 05:13:26 10° ENE visible
27 Oct -2.9 04:21:45 37° S 04:22:24 43° SSE 04:25:37 10° ENE visible
28 Oct -1.2 03:36:12 21° ESE 03:36:12 21° ESE 03:37:44 10° E visible
28 Oct -3.8 05:09:09 20° W 05:11:22 76° NNW 05:14:44 10° ENE visible
29 Oct -3.9 04:23:31 82° SSW 04:23:36 84° SSE 04:26:59 10° ENE visible
